TITAN 3C TRANSTAGE R/B, 2222

Orbit data source: Space-Track

TITAN 3C TRANSTAGE R/B, 2222 is space debris in GEO originally from a launch on Thu, 16 Jun 1966 UTC launched from the Air Force Eastern Test Range (AFETR). Debris objects in space refer to the collection of defunct objects orbiting the Earth. Examples of debris include non-operational satellites, rocket bodies, and fragments generated from explosions, collisions, or faulty payload assembly.

Not visible in the next 10 days
Identifier
2222, 1966-053J
Orbit
GEO
Country
Flag of USUS
Related business
Manufacturer
Martin Marietta
Mission
Spacecraft
Bus & Motor
TRANSTAGE, Unknown motor
Mass
2,050 kg wet, 2,050 kg dry
Launch date (UTC)
1966-06-16 (60 years ago)
Launch vehicle
Unknown
Launch site
Air Force Eastern Test Range (AFETR)
Object type
Payload
Rocket body
Debris
Shape & HBR
Unknown
Radar Cross Section
Large (>1 m²)

Expand to show TLE details & history
Last TLE update: 14 hours ago

TLE from 14 hours ago
0 TITAN 3C TRANSTAGE R/B
1  2222U 66053J   26034.90692542 -.00000140  00000-0  00000+0 0  9995
2  2222   8.1481  49.1932 0164443 167.3735 200.4570  1.06721347128969
Epoch: 2026-02-03T21:45Z
TLE epoch observation values (Epoch: 2026-02-03T21:45:58.356Z)
Latitude
1.00259°
Longitude
-44.24653°
Altitude
34,690.608 km
Speed
3.091 km/s
True Right ascension
03h 45m 18s
True Declination
1° 00' 06"
Sunlit
Object was in daylight at epoch
Visualization orbit readout
Latitude
Unknown
Longitude
Unknown
Altitude
Unknown
Speed
Unknown
Apparent Right ascension
Unknown
Apparent Declination
Unknown
Sunlit
N/A
Visualization observer readout
Local Sidereal Time
13:29:32
Azimuth
Unknown
Elevation
Unknown
Doppler factor
Unknown
Orbital elements
Apogee altitude
34,736.473 km
Perigee altitude
33,406.147 km
Semi-major axis
40,449.447 km
Eccentricity
0.01644
Inclination
8.1481°
RAAN
49.1932°
Arg. of periapsis
167.3735°
True anomaly
199.81087°
Mean anomaly
200.457°
Eccentric anomaly
200.1327°
Mean motion
0.26679 °/min
Orbital period
1,349.36 mins
BSTAR
0
Loading maneuver chart data...
Computing Atmospheric mass density...
Loading historical data...
Loading historical data...
Loading historical data...
Loading historical data...
Loading historical data...
Loading historical data...
Loading historical data...

Documentation

Showing up to 5 results
|